Location: Calvatone
(45.1167°N, 10.4333°E)
Time: 10:01:17
(UTC+00:00)

YAOGAN 1 - Pass Details

Date: 28 January 2023
Orbit: 616 x 618 km, 97.8° (Epoch: 28 March)

Event Time Altitude Azimuth Distance (km) Brightness Sun altitude
Rises 18:02:12 0° 165° (SSE) 2,877 5.9 -18.1°
Reaches altitude 10° 18:04:23 10° 165° (SSE) 1,977 5.1 -18.5°
Maximum altitude 18:08:41 89° 68° (ENE) 625 2.5 -19.2°
Drops below altitude 10° 18:13:02 10° 347° (NNW) 1,995 5.2 -20.0°
Sets 18:15:14 0° 348° (NNW) 2,906 6.1 -20.4°
